Cartersville, GA

10:22 PM EDT on September 24, 2016 (GMT -0400)
Cartersville

Weather History for KVPC - April, 2013

Change the Weather History Date:

Sunday, April 14, 2013

  Actual Average Record
Temperature  
Mean Temperature 51 °F 59 °F  
Max Temperature 61 °F 72 °F 86 °F (2006)
Min Temperature 41 °F 45 °F 39 °F (2004)
Degree Days  
Heating Degree Days 14 7  
Month to date heating degree days 110 117  
Since 1 July heating degree days 138 3145  
Cooling Degree Days 0 1  
Month to date cooling degree days 8 3  
Year to date cooling degree days 8 7  
Moisture  
Dew Point 49 °F    
Average Humidity 78    
Maximum Humidity 100    
Minimum Humidity 55    
Precipitation  
Precipitation 0.13 in 0.11 in 1.93 in (1980)
Month to date precipitation 1.75 1.73  
Year to date precipitation 2.33 15.95  
Snow  
Snow 0.00 in - - ()
Month to date snowfall 0.0  
Since 1 July snowfall 0.0  
Snow Depth 0.00 in    
Sea Level Pressure  
Sea Level Pressure 29.97 in    
Wind  
Wind Speed 4 mph (ESE)    
Max Wind Speed 15 mph    
Max Gust Speed 25 mph    
Visibility 10 miles    
Events Rain    
T = Trace of Precipitation, MM = Missing Value Source: NWS Daily Summary

Daily Weather History Graph

Daily Weather History Graph

Search for Another Location

Airport or City:

Trip Planner

Search our weather history database for the weather conditions in past years. The results will help you decide how hot, cold, wet, or windy it might be!

Date:

Astronomy

Apr. 14, 2013 Rise Set
Actual Time 7:09 AM EDT 8:10 PM EDT
Civil Twilight 6:43 AM EDT 8:36 PM EDT
Nautical Twilight 6:13 AM EDT 9:06 PM EDT
Astronomical Twilight 5:41 AM EDT 9:38 PM EDT
Moon 9:53 AM EDT (4/14) No Moon Set
Length of Visible Light 13h 52m
Length of Day
13h 01m
Waxing Crescent, 17% of the Moon is Illuminated
Apr 14
Waxing Crescent
Apr 18
First Quarter
Apr 25
Full
May 2
Last Quarter
May 9
New

Hourly Weather History & Observations

Time (EDT) Temp. Dew Point Humidity Pressure Visibility Wind Dir Wind Speed Gust Speed Precip Events Conditions
12:53 AM 48.0 °F 44.1 °F 86% 30.02 in 10.0 mi Calm Calm - N/A   Clear
1:53 AM 45.0 °F 43.0 °F 93% 30.00 in 10.0 mi Calm Calm - N/A   Clear
2:53 AM 44.1 °F 42.1 °F 93% 29.99 in 10.0 mi Calm Calm - N/A   Clear
3:53 AM 43.0 °F 41.0 °F 93% 29.98 in 10.0 mi Calm Calm - N/A   Clear
4:53 AM 41.0 °F 41.0 °F 100% 29.98 in 10.0 mi Calm Calm - N/A   Clear
5:53 AM 44.1 °F 43.0 °F 96% 29.99 in 10.0 mi Calm Calm - N/A   Clear
6:53 AM 45.0 °F 44.1 °F 97% 29.99 in 10.0 mi Calm Calm - N/A   Clear
7:53 AM 46.9 °F 45.0 °F 93% 30.00 in 10.0 mi Calm Calm - N/A   Clear
8:53 AM 54.0 °F 42.1 °F 64% 30.01 in 10.0 mi ESE 3.5 mph - N/A   Clear
9:53 AM 55.9 °F 42.1 °F 60% 30.02 in 10.0 mi East 4.6 mph - N/A   Clear
10:53 AM 59.0 °F 44.1 °F 58% 30.01 in 10.0 mi Calm Calm - N/A   Clear
11:53 AM 60.1 °F 45.0 °F 57% 30.02 in 10.0 mi Variable 3.5 mph - N/A   Partly Cloudy
12:53 PM 60.1 °F 46.0 °F 60% 30.03 in 10.0 mi Calm Calm - N/A   Overcast
1:53 PM 55.9 °F 53.1 °F 90% 30.05 in 7.0 mi Calm Calm - 0.04 in Rain Light Rain
2:53 PM 55.9 °F 55.0 °F 97% 30.05 in 8.0 mi ESE 3.5 mph - 0.07 in Rain Light Rain
3:53 PM 57.0 °F 55.0 °F 93% 29.98 in 10.0 mi ESE 6.9 mph - 0.01 in   Overcast
4:53 PM 57.9 °F 54.0 °F 87% 29.88 in 10.0 mi ESE 10.4 mph 19.6 mph N/A   Partly Cloudy
5:53 PM 57.9 °F 52.0 °F 81% 29.90 in 10.0 mi ESE 8.1 mph - N/A   Overcast
6:19 PM 57.2 °F 51.8 °F 82% 29.91 in 10.0 mi ESE 9.2 mph 18.4 mph N/A   Overcast
6:53 PM 57.9 °F 53.1 °F 84% 29.92 in 10.0 mi SE 4.6 mph - N/A   Overcast
7:53 PM 59.0 °F 54.0 °F 83% 29.91 in 10.0 mi ESE 6.9 mph - N/A   Overcast
8:13 PM 59.0 °F 53.6 °F 82% 29.93 in 10.0 mi Variable 4.6 mph - N/A   Overcast
8:20 PM 57.2 °F 53.6 °F 88% 29.93 in 10.0 mi Variable 5.8 mph - N/A   Overcast
8:53 PM 57.0 °F 54.0 °F 89% 29.91 in 9.0 mi ESE 9.2 mph - 0.01 in Rain Light Rain
9:53 PM 57.9 °F 53.1 °F 84% 29.94 in 10.0 mi Variable 6.9 mph - 0.00 in   Overcast
10:33 PM 57.2 °F 53.6 °F 88% 29.93 in 10.0 mi ESE 8.1 mph - N/A   Overcast
10:53 PM 57.9 °F 53.1 °F 84% 29.91 in 10.0 mi ESE 9.2 mph - N/A   Overcast
11:53 PM 57.0 °F 54.0 °F 89% 29.93 in 10.0 mi SE 8.1 mph - N/A   Overcast